Lid_Strength_Index
5 5 5 5 5 5 5 5 5 4 4 4 4 4 3 3 3 5 7 4 3 1 3 4 3 4 2 3 3 4 7 9 8 8 7 5 6 5 4 5 5 4 3 2 1
5 5 5 5 5 5 5 5 5 5 5 5 4 4 4 4 5 7 3 1 -0 2 4 6 5 4 5 5 4 6 8 8 5 5 6 5 5 6 5 6 6 5 4 2 2
5 5 5 5 5 5 5 5 5 5 5 4 5 5 4 4 7 6 1 1 1 2 5 5 5 5 6 6 5 5 8 5 5 4 4 5 5 5 6 7 5 5 4 4 2
5 5 5 5 5 5 5 5 4 4 4 4 4 5 5 5 11 2 1 1 2 3 4 5 6 7 7 7 6 7 6 6 5 4 5 6 5 6 6 6 4 4 3 3 2
5 5 5 5 5 5 5 5 5 4 4 4 4 4 5 8 8 4 1 1 1 2 3 5 6 7 8 7 6 7 6 5 5 5 4 5 6 6 5 5 3 4 3 3 3
5 5 5 5 5 4 4 4 4 4 4 4 4 4 6 11 4 3 2 2 2 2 3 3 5 4 6 6 7 6 6 6 6 5 5 6 6 6 5 4 4 4 4 4 3
5 5 5 5 5 5 4 4 4 3 3 3 3 4 7 8 4 4 4 5 4 3 4 2 3 5 5 7 5 6 8 7 7 6 7 6 7 7 5 4 5 4 4 4 3
5 5 5 5 5 5 4 3 3 3 2 2 2 4 9 3 3 4 4 4 3 2 3 1 2 4 5 5 6 8 8 10 8 7 7 7 10 6 5 5 6 5 4 4 3
5 5 5 5 5 4 3 3 2 2 2 2 3 5 8 2 4 3 3 5 4 4 3 2 2 4 5 7 8 8 11 10 9 6 7 8 9 7 5 5 5 5 5 4 4
5 5 5 4 4 3 3 3 2 1 2 1 2 6 4 5 2 2 1 2 4 4 6 6 5 7 7 9 13 11 10 9 9 7 7 8 9 6 6 6 5 5 4 4 5
5 5 4 4 3 3 3 2 5 5 3 5 5 4 3 1 1 2 1 2 3 4 7 7 8 10 8 8 7 7 8 9 7 6 7 8 8 7 6 6 6 5 4 4 4
5 4 4 3 3 3 2 4 5 3 7 3 3 3 2 2 5 3 1 5 6 8 6 7 10 8 6 6 7 8 9 9 7 6 7 7 9 7 6 6 6 5 5 4 3
4 4 4 3 3 3 4 3 1 0 7 5 3 4 4 3 6 5 3 4 7 9 8 9 7 6 7 7 8 8 9 9 9 7 6 7 9 8 6 5 5 5 4 4 4
4 4 3 3 4 3 3 0 -1 -0 10 8 6 6 4 4 8 4 3 5 7 8 8 9 6 7 7 8 7 10 7 8 8 9 11 7 12 8 7 7 6 5 5 4 4
4 3 3 3 3 3 2 -1 -1 1 19 7 6 2 3 5 5 6 2 5 8 8 7 9 8 8 9 8 7 9 6 8 8 9 9 9 11 9 7 8 7 5 5 4 4
4 3 3 3 2 1 -1 -1 2 13 18 9 5 6 7 6 6 5 5 4 4 9 8 9 5 7 7 6 6 6 7 8 8 9 13 10 10 10 8 7 6 5 5 4 4
4 4 3 2 3 -1 -1 2 13 15 7 9 9 7 8 10 10 8 9 11 11 15 15 11 10 8 6 8 6 7 10 16 16 15 15 9 10 9 7 6 5 5 5 4 4
4 4 1 2 -1 -1 1 8 13 10 10 7 8 8 11 10 9 9 10 11 8 9 11 16 16 8 7 8 9 9 10 14 19 16 14 9 12 10 6 5 4 4 4 4 4
4 1 2 1 -1 -0 4 11 12 10 8 9 9 11 10 9 10 10 10 10 9 8 13 14 14 8 7 6 7 9 13 8 11 10 12 11 9 7 6 6 6 5 4 4 4
4 3 2 -1 -2 1 7 11 9 7 7 8 13 10 13 11 11 11 13 10 11 9 8 10 15 10 8 6 7 8 7 13 11 16 16 12 11 10 8 7 6 6 6 6 4
3 5 1 -1 -0 4 10 9 8 6 6 9 10 12 11 12 11 11 12 11 9 10 8 11 12 13 9 10 10 9 10 10 10 11 14 14 12 7 7 6 7 8 8 7 7
4 6 1 -0 5 6 8 7 6 7 6 7 7 9 10 11 12 11 12 11 7 9 12 10 13 16 13 8 7 7 10 9 13 14 12 11 15 7 6 6 8 9 8 7 6
6 5 1 1 10 9 7 8 7 7 7 8 9 8 7 11 14 10 10 8 8 9 13 10 14 17 17 13 9 11 9 9 10 10 12 13 16 9 8 9 9 9 8 7 6
6 8 5 3 5 9 9 9 9 6 7 7 8 7 9 11 9 12 11 9 8 9 8 9 13 15 16 14 10 14 10 8 10 13 13 12 15 12 11 10 9 8 7 7 6
6 7 6 9 8 8 7 8 9 10 7 7 8 9 10 13 12 12 10 10 10 8 9 12 15 13 11 11 10 10 10 9 11 11 13 13 14 12 11 10 9 8 8 8 7
8 9 7 8 6 7 7 9 9 8 9 10 11 10 10 12 12 13 12 12 13 9 12 12 16 13 15 10 10 11 9 9 9 10 10 13 14 9 9 8 8 8 8 8 8
6 5 7 8 6 7 8 10 9 8 8 8 9 10 11 9 8 8 8 10 11 13 13 13 14 15 16 11 11 14 9 9 10 9 9 14 13 10 10 9 9 8 7 7 7